[ hide orbit diagram ]
For accurate long-term ephemerides, please instead use our Horizons system.This orbit viewer was implemented using two-body methods, and hence should not be used for determining accurate long-term trajectories (over several years or decades) or planetary encounter circumstances.
Orbital Elements at Epoch 2458767.5 (2019-Oct-11.0) TDB
Reference: JPL 13 (heliocentric ecliptic J2000)
Element | Value | Uncertainty (1-sigma) | Units |
e | .996720616983225 | 4.0974e-06 | |
a | 698.7119856739691 | 0.8732 | au |
q | 2.291344219436348 | 8.9693e-07 | au |
i | 159.2114352366943 | 1.551e-05 | deg |
node | 208.1426570508383 | 4.4932e-05 | deg |
peri | 82.65345160550403 | 5.281e-05 | deg |
M | 359.9967944766894 | 6.0097e-06 | deg |
tp | 2458827.567859367000 (2019-Dec-10.06785937) | 0.00010784 | TDB |
period | 6745990.366231258 18469.52 | 12646 34.62 | d yr |
n | 5.336503322063281E-5 | 1.0004e-07 | deg/d |
Q | 1395.132627128502 | 1.7435 | au |
|
| | Orbit Determination Parameters
Additional Information
|
[ show covariance matrix ]
Physical Parameter Table
Parameter |
Symbol |
Value |
Units |
Sigma |
Reference |
Notes |
absolute magnitude |
H |
16.355 |
|
.60567 |
13 |
autocmod 2.8 |
|
[ show close-approach data ]
|